Regional Weather Roundup
Issued by NWS

Home | Current Version | Previous Version | Graphics & Text | Print | Product List | Glossary On
Versions: 1 2 3 4 5 6 7 8 9 10 11 12 13 14 15 16 17 18 19 20 21 22 23 24 25 26 27 28 29 30 31 32 33 34 35 36 37 38 39 40 41 42 43 44 45 46 47 48 49 50
000
ASUS43 KMPX 190210
RWRMN
WEATHER ROUNDUP FOR MINNESOTA
NATIONAL WEATHER SERVICE TWIN CITIES/CHANHASSEN MN
900 PM CDT FRI AUG 18 2017


NOTE: "FAIR" INDICATES FEW OR NO CLOUDS BELOW 12,000 FEET WITH NO
SIGNIFICANT WEATHER AND/OR OBSTRUCTIONS TO VISIBILITY. N/A MEANS
CURRENT SKY AND/OR WEATHER CONDITIONS ARE NOT AVAILABLE.

MNZ060>063-068>070-190300-
   Twin Cities Metro

CITY           SKY/WX    TMP DP  RH WIND       PRES   REMARKS
TWIN CITIES    CLOUDY    69  58  67 W5        29.90R
ST PAUL        CLOUDY    65  64  97 CALM      29.90R
CRYSTAL        PTCLDY    65  59  81 CALM      29.89R
BLAINE         MOCLDY    66  61  82 CALM      29.90R
LAKEVILLE      CLOUDY    61  61 100 CALM      29.91R
EDEN PRAIRIE   PTCLDY    66  61  84 CALM      29.90R
SOUTH ST PAUL  CLOUDY    66  62  87 CALM      29.90S
LAKE ELMO      FAIR      64  61  88 CALM      29.91R
$$
MNZ001>005-007-008-013>017-022>024-027-028-190300-
   Northwest Minnesota

CITY           SKY/WX    TMP DP  RH WIND       PRES   REMARKS
BEMIDJI        CLEAR     63  57  80 SW6       29.87S
HALLOCK        CLEAR     68  57  68 CALM      29.82R
ROSEAU         CLEAR     72  57  60 W3        29.83R
WARROAD        CLEAR     66  61  82 W3        29.83R
THIEF RVR FALL CLEAR     67  56  67 SW5       29.86R
CROOKSTON      CLEAR     70  57  64 CALM      29.85S
FOSSTON        CLEAR     57  55  94 S5        29.88S
DETROIT LAKES  CLEAR     63  59  88 CALM      29.91S
MOORHEAD       CLEAR     64  61  88 CALM      29.88S
PARK RAPIDS    CLEAR     62  59  90 CALM      29.89R FOG
MAHNOMEN       FAIR      60  58  92 S6        29.87S
$$
MNZ006-009>011-018-025>026-190300-
   North Central Minnesota

CITY           SKY/WX    TMP DP  RH WIND       PRES   REMARKS
BAUDETTE       CLEAR     68  58  70 W5        29.81S
FLAG ISLAND    CLEAR     72  59  64 CALM      29.80S HAZE
INTL FALLS     CLEAR     61  57  87 SW3       29.81S
WASKISH        CLEAR     66  61  82 S3        29.84S
BIG FORK       CLEAR     63  57  82 CALM      29.85S
LONGVILLE      CLEAR     57  57 100 CALM      29.88S FOG
GRAND RAPIDS   CLOUDY    65  58  78 W3        29.89S
CRANE LAKE     CLEAR     63  57  82 S3        29.84S
ORR            CLEAR     59  57  94 CALM      29.83R
COOK           CLOUDY    63  61  94 SW3       29.85S
WALKER         FAIR      61  57  89 W6        29.88R
$$
MNZ012-019>021-037-190300-
   Northeast Minnesota

CITY           SKY/WX    TMP DP  RH WIND       PRES   REMARKS
DULUTH         PTCLDY    63  59  87 W6        29.87R
ELY            MOCLDY    61  59  94 CALM      29.85S
HIBBING        CLOUDY    57  57 100 CALM      29.86S
EVELETH        CLOUDY    63  59  87 W5        29.87S
DULUTH HARBOR  PTCLDY    66  63  88 S9        29.85S
TWO HARBORS    TSTM      64  61  88 N5        29.85R
SILVER BAY     CLOUDY    64  63  94 CALM      29.83R
GRAND MARAIS     N/A     62  60  93 CALM      29.80S
G MARAIS ARPRT CLEAR     57  54  88 SW3       29.85S
$$
MNZ029>031-032-039>041-046>048-054>057-064-190300-
   West Central Minnesota

CITY           SKY/WX    TMP DP  RH WIND       PRES   REMARKS
FERGUS FALLS   CLEAR     66  61  82 CALM      29.89R
WHEATON        CLEAR     64  59  82 CALM      29.92S
MORRIS         CLEAR     66  63  88 NW5       29.91R
ALEXANDRIA     CLEAR     61  60  97 SW3       29.93R
ELBOW LAKE     FAIR      64  61  89 SW5       29.91S FOG
WADENA         CLEAR     63  57  82 W5        29.90R
GLENWOOD       CLEAR     63  61  94 W3        29.93R
APPLETON       CLEAR     66  63  88 CALM      29.91R
BENSON         CLEAR     63  59  88 CALM      29.93R
ORTONVILLE     CLEAR     64  61  88 MISG      29.91S
MADISON        PTCLDY    66  66 100 N6        29.91R
WILLMAR        FAIR      64  63  94 CALM      29.92R
$$
MNZ033>034-036-042>043-049>051-058-059-190300-
   Central Minnesota

CITY           SKY/WX    TMP DP  RH WIND       PRES   REMARKS
ST CLOUD       CLOUDY    61  61 100 S5        29.90R
SAUK CENTRE    FAIR      63  62  97 W3        29.91S
PAYNESVILLE    PTCLDY    63  62  97 CALM      29.92R
AITKIN         CLEAR     55  54  94 CALM      29.88S FOG
PINE RIVER     CLOUDY    57  55  94 CALM      29.92S
BRAINERD       CLOUDY    60  60 100 CALM      29.89S FOG
STAPLES        CLOUDY    63  57  82 CALM      29.90R
LONG PRAIRIE   FAIR      61  59  94 CALM      29.92R
LITTLE FALLS   CLEAR     59  57  94 CALM      29.90R FOG
LITCHFIELD     CLOUDY    66  64  94 CALM      29.91R
BUFFALO        CLOUDY    65  61  85 CALM      29.91R
MAPLE LAKE     PTCLDY    65  63  93 CALM      29.92R
HUTCHINSON     PTCLDY    67  62  84 CALM      29.91S
$$
MNZ037-044-045-052-053-190300-
   East Central Minnesota

CITY           SKY/WX    TMP DP  RH WIND       PRES   REMARKS
PRINCETON      CLOUDY    66  63  88 SW3       29.90S
MORA           CLEAR     59  57  94 CALM      29.91S
CAMBRIDGE      CLEAR     66  61  82 CALM      29.90S
RUSH CITY      PTCLDY    65  62  89 CALM      29.89S
MOOSE LAKE     CLOUDY    59  55  88 CALM      29.87S
HINCKLEY       FAIR      64  61  88 CALM      29.89S
CLOQUET        CLEAR     63  55  77 CALM      29.88R
MCGREGOR       CLEAR     61  57  88 CALM      29.89S
$$
MNZ071>073-080-081-089-090-097-098-190300-
   Southwest Minnesota

CITY           SKY/WX    TMP DP  RH WIND       PRES   REMARKS
MONTEVIDEO     CLOUDY    63  61  94 W3        29.91R
GRANITE FALLS  CLOUDY    62  61  97 W5        29.92F
CANBY          CLOUDY    65  63  93 CALM      29.93R
MARSHALL       CLOUDY    61  60  97 S3        29.91F
REDWOOD FALLS  CLOUDY    63  60  90 N3        29.91R
OLIVIA         CLOUDY    63  57  82 CALM      29.90S
PIPESTONE      CLEAR     66  61  82 N8        29.93R
WINDOM         TSTM      61  57  88 S3        29.92F
WORTHINGTON    CLOUDY    62  59  90 VRB3      29.93S
JACKSON        TSTM      55  55 100 CALM      29.90F
TRACY          CLOUDY    62  61  97 SW3       29.92R
SLAYTON        CLOUDY    62  56  81 CALM      29.92S
$$
MNZ065>067-074>077-082>085-091>093-190300-
   South Central Minnesota

CITY           SKY/WX    TMP DP  RH WIND       PRES   REMARKS
MANKATO        CLOUDY    66  62  87 SE5       29.91S
NEW ULM        CLOUDY    66  61  82 SE7       29.88S
ST JAMES       TSTM      61  59  94 S10       29.92F
FAIRMONT       RAIN      61  57  88 NW15      29.98R
GLENCOE        MOCLDY    66  65  95 CALM      29.90R
FARIBAULT      CLOUDY    66  59  77 S5        29.91S
OWATONNA       PTCLDY    63  59  88 S6        29.92R
WASECA         CLOUDY    63  59  88 CALM      29.93R
ALBERT LEA     CLOUDY    66  64  94 CALM      29.93R
$$
MNZ078>079-086>088-094>096-190300-
   Southeast Minnesota

CITY           SKY/WX    TMP DP  RH WIND       PRES   REMARKS
ROCHESTER      CLEAR     61  57  87 SW5       29.93R
RED WING       CLEAR     63  61  94 CALM      29.89R
STANTON        PTCLDY    64  62  93 CALM      29.90R
DODGE CENTER   CLOUDY    59  55  88 CALM      29.93S
WINONA         PTCLDY    63  61  94 CALM      29.91S
AUSTIN         CLOUDY    63  57  82 CALM      29.93R
PRESTON        CLEAR     64  55  71 CALM      29.93R
$$
ABBREVIATIONS USED IN REMARKS
   TC - TEMPERATURES IN CELSIUS
  WCI - WIND CHILL INDEX
   HX - HEAT INDEX
  VSB - VISIBILITY
$$




USA.gov is the U.S. government's official web portal to all federal, state and local government web resources and services.